Time,TemperatureF,DewpointF,PressureIn,WindDirection,WindDirectionDegrees,WindSpeedMPH,WindSpeedGustMPH,Humidity,HourlyPrecipIn,Conditions,Clouds,dailyrainin,SolarRadiationWatts/m^2,SoftwareType,DateUTC
2013-09-02 00:03:00,50.0,49.0,-100.00,NW,312,4.0,5.0,98,0.01,,,0.18,0.000000,,2013-09-02 06:03:00,
2013-09-02 00:12:00,50.0,49.0,-100.00,NW,312,4.0,5.0,98,0.01,,,0.18,0.000000,,2013-09-02 06:12:00,
2013-09-02 00:22:00,50.0,49.0,-100.00,NW,312,4.0,5.0,98,0.01,,,0.18,0.000000,,2013-09-02 06:22:00,
2013-09-02 00:52:00,50.0,49.0,-100.00,WNW,285,4.0,5.0,98,0.00,,,0.18,0.000000,,2013-09-02 06:52:00,
2013-09-02 01:01:00,50.0,49.0,-100.00,WNW,285,4.0,5.0,98,0.00,,,0.18,0.000000,,2013-09-02 07:01:00,
2013-09-02 01:11:00,50.0,49.0,-100.00,WNW,285,4.0,5.0,98,0.00,,,0.18,0.000000,,2013-09-02 07:11:00,
2013-09-02 01:21:00,50.0,49.0,-100.00,WNW,285,4.0,5.0,98,0.00,,,0.18,0.000000,,2013-09-02 07:21:00,
2013-09-02 01:52:00,49.0,48.0,-100.00,WNW,284,4.0,6.0,98,0.00,,,0.18,0.000000,,2013-09-02 07:52:00,
2013-09-02 02:02:00,49.0,48.0,-100.00,WNW,284,4.0,6.0,98,0.00,,,0.18,0.000000,,2013-09-02 08:02:00,
2013-09-02 02:11:00,49.0,48.0,-100.00,WNW,284,4.0,6.0,98,0.00,,,0.18,0.000000,,2013-09-02 08:11:00,
2013-09-02 02:22:00,49.0,48.0,-100.00,WNW,284,4.0,6.0,98,0.00,,,0.18,0.000000,,2013-09-02 08:22:00,
2013-09-02 02:52:00,49.0,48.0,-100.00,NNW,343,0.0,6.0,97,0.00,,,0.18,0.000000,,2013-09-02 08:52:00,
2013-09-02 03:01:00,49.0,48.0,-100.00,NNW,343,0.0,6.0,97,0.00,,,0.18,0.000000,,2013-09-02 09:01:00,
2013-09-02 03:12:00,49.0,48.0,-100.00,NNW,343,0.0,6.0,97,0.00,,,0.18,0.000000,,2013-09-02 09:12:00,
2013-09-02 03:22:00,49.0,48.0,-100.00,NNW,343,0.0,6.0,97,0.00,,,0.18,0.000000,,2013-09-02 09:22:00,
2013-09-02 03:53:00,49.0,49.0,-100.00,West,268,4.0,5.0,99,0.00,,,0.18,0.000000,,2013-09-02 09:53:00,
2013-09-02 04:03:00,49.0,49.0,-100.00,West,268,4.0,5.0,99,0.00,,,0.18,0.000000,,2013-09-02 10:03:00,
2013-09-02 04:13:00,49.0,49.0,-100.00,West,268,4.0,5.0,99,0.00,,,0.18,0.000000,,2013-09-02 10:13:00,
2013-09-02 04:22:00,49.0,49.0,-100.00,West,268,4.0,5.0,99,0.00,,,0.18,0.000000,,2013-09-02 10:22:00,
2013-09-02 04:53:00,48.0,48.0,-100.00,WNW,293,3.0,5.0,99,0.00,,,0.18,0.000000,,2013-09-02 10:53:00,
2013-09-02 05:03:00,48.0,48.0,-100.00,WNW,293,3.0,5.0,99,0.00,,,0.18,0.000000,,2013-09-02 11:03:00,
2013-09-02 05:11:00,48.0,48.0,-100.00,WNW,293,3.0,5.0,99,0.00,,,0.18,0.000000,,2013-09-02 11:11:00,
2013-09-02 05:22:00,48.0,48.0,-100.00,WNW,293,3.0,5.0,99,0.00,,,0.18,0.000000,,2013-09-02 11:22:00,
2013-09-02 05:52:00,48.0,47.0,-100.00,WNW,302,3.0,5.0,98,0.00,,,0.18,0.000000,,2013-09-02 11:52:00,
2013-09-02 06:02:00,48.0,47.0,-100.00,WNW,302,3.0,5.0,98,0.00,,,0.18,0.000000,,2013-09-02 12:02:00,
2013-09-02 06:12:00,48.0,47.0,-100.00,WNW,302,3.0,5.0,98,0.00,,,0.18,0.000000,,2013-09-02 12:12:00,
2013-09-02 06:21:00,48.0,47.0,-100.00,WNW,302,3.0,5.0,98,0.00,,,0.18,0.000000,,2013-09-02 12:21:00,
2013-09-02 06:52:00,48.0,47.0,-100.00,WNW,288,2.0,5.0,98,0.00,,,0.18,0.000000,,2013-09-02 12:52:00,
2013-09-02 07:02:00,48.0,47.0,-100.00,WNW,288,2.0,5.0,98,0.00,,,0.18,0.000000,,2013-09-02 13:02:00,
2013-09-02 07:11:00,48.0,47.0,-100.00,WNW,288,2.0,5.0,98,0.00,,,0.18,0.000000,,2013-09-02 13:11:00,
2013-09-02 07:22:00,48.0,47.0,-100.00,WNW,288,2.0,5.0,98,0.00,,,0.18,0.000000,,2013-09-02 13:22:00,
2013-09-02 07:52:00,54.0,50.0,-100.00,SSE,152,2.0,5.0,87,0.00,,,0.18,74.000000,,2013-09-02 13:52:00,
2013-09-02 08:02:00,54.0,50.0,-100.00,SSE,152,2.0,5.0,87,0.00,,,0.18,74.000000,,2013-09-02 14:02:00,
2013-09-02 08:11:00,54.0,50.0,-100.00,SSE,152,2.0,5.0,87,0.00,,,0.18,74.000000,,2013-09-02 14:11:00,
2013-09-02 08:22:00,54.0,50.0,-100.00,SSE,152,2.0,5.0,87,0.00,,,0.18,74.000000,,2013-09-02 14:22:00,
2013-09-02 08:23:00,58.0,54.0,-100.00,SE,135,3.0,4.0,87,0.00,,,0.18,162.000000,,2013-09-02 14:23:00,
2013-09-02 08:52:00,58.0,54.0,-100.00,SE,135,3.0,4.0,87,0.00,,,0.18,162.000000,,2013-09-02 14:52:00,
2013-09-02 09:02:00,58.0,54.0,-100.00,SE,135,3.0,4.0,87,0.00,,,0.18,162.000000,,2013-09-02 15:02:00,
2013-09-02 09:12:00,58.0,54.0,-100.00,SE,135,3.0,4.0,87,0.00,,,0.18,162.000000,,2013-09-02 15:12:00,
2013-09-02 09:23:00,61.0,54.0,-100.00,ESE,108,3.0,5.0,78,0.00,,,0.18,371.000000,,2013-09-02 15:23:00,
2013-09-02 09:55:00,61.0,54.0,-100.00,ESE,108,3.0,5.0,78,0.00,,,0.18,371.000000,,2013-09-02 15:55:00,
2013-09-02 10:04:00,61.0,54.0,-100.00,ESE,108,3.0,5.0,78,0.00,,,0.18,371.000000,,2013-09-02 16:04:00,
2013-09-02 10:14:00,61.0,54.0,-100.00,ESE,108,3.0,5.0,78,0.00,,,0.18,371.000000,,2013-09-02 16:14:00,
2013-09-02 10:23:00,66.0,50.0,-100.00,SE,130,4.0,7.0,56,0.00,,,0.18,673.000000,,2013-09-02 16:23:00,
2013-09-02 10:53:00,66.0,50.0,-100.00,SE,130,4.0,7.0,56,0.00,,,0.18,673.000000,,2013-09-02 16:53:00,
2013-09-02 11:03:00,66.0,50.0,-100.00,SE,130,4.0,7.0,56,0.00,,,0.18,673.000000,,2013-09-02 17:03:00,
2013-09-02 11:13:00,66.0,50.0,-100.00,SE,130,4.0,7.0,56,0.00,,,0.18,673.000000,,2013-09-02 17:13:00,
2013-09-02 11:52:00,70.0,50.0,-100.00,SE,138,4.0,10.0,50,0.00,,,0.18,811.000000,,2013-09-02 17:52:00,
2013-09-02 12:02:00,70.0,50.0,-100.00,SE,138,4.0,10.0,50,0.00,,,0.18,811.000000,,2013-09-02 18:02:00,
2013-09-02 12:13:00,70.0,50.0,-100.00,SE,138,4.0,10.0,50,0.00,,,0.18,811.000000,,2013-09-02 18:13:00,
2013-09-02 12:22:00,70.0,50.0,-100.00,SE,138,4.0,10.0,50,0.00,,,0.18,811.000000,,2013-09-02 18:22:00,
2013-09-02 12:52:00,74.0,48.0,-100.00,SE,140,5.0,9.0,40,0.00,,,0.18,909.000000,,2013-09-02 18:52:00,
2013-09-02 13:02:00,74.0,48.0,-100.00,SE,140,5.0,9.0,40,0.00,,,0.18,909.000000,,2013-09-02 19:02:00,
2013-09-02 13:12:00,74.0,48.0,-100.00,SE,140,5.0,9.0,40,0.00,,,0.18,909.000000,,2013-09-02 19:12:00,
2013-09-02 13:22:00,74.0,48.0,-100.00,SE,140,5.0,9.0,40,0.00,,,0.18,909.000000,,2013-09-02 19:22:00,
2013-09-02 13:52:00,72.0,45.0,-100.00,SSE,166,5.0,10.0,38,0.00,,,0.18,416.000000,,2013-09-02 19:52:00,
2013-09-02 14:02:00,72.0,45.0,-100.00,SSE,166,5.0,10.0,38,0.00,,,0.18,416.000000,,2013-09-02 20:02:00,
2013-09-02 14:12:00,72.0,45.0,-100.00,SSE,166,5.0,10.0,38,0.00,,,0.18,416.000000,,2013-09-02 20:12:00,
2013-09-02 14:22:00,72.0,45.0,-100.00,SSE,166,5.0,10.0,38,0.00,,,0.18,416.000000,,2013-09-02 20:22:00,
2013-09-02 14:23:00,74.0,35.0,-100.00,SW,224,8.0,17.0,24,0.00,,,0.18,296.000000,,2013-09-02 20:23:00,
2013-09-02 14:52:00,74.0,35.0,-100.00,SW,224,8.0,17.0,24,0.00,,,0.18,296.000000,,2013-09-02 20:52:00,
2013-09-02 15:02:00,74.0,35.0,-100.00,SW,224,8.0,17.0,24,0.00,,,0.18,296.000000,,2013-09-02 21:02:00,
2013-09-02 15:12:00,74.0,35.0,-100.00,SW,224,8.0,17.0,24,0.00,,,0.18,296.000000,,2013-09-02 21:12:00,
2013-09-02 15:23:00,79.0,36.0,-100.00,SE,138,6.0,21.0,21,0.00,,,0.18,779.000000,,2013-09-02 21:23:00,
2013-09-02 15:55:00,79.0,36.0,-100.00,SE,138,6.0,21.0,21,0.00,,,0.18,779.000000,,2013-09-02 21:55:00,
2013-09-02 16:04:00,79.0,36.0,-100.00,SE,138,6.0,21.0,21,0.00,,,0.18,779.000000,,2013-09-02 22:04:00,
2013-09-02 16:13:00,79.0,36.0,-100.00,SE,138,6.0,21.0,21,0.00,,,0.18,779.000000,,2013-09-02 22:13:00,
2013-09-02 16:54:00,76.0,39.0,-100.00,SE,127,8.0,14.0,26,0.00,,,0.18,402.000000,,2013-09-02 22:54:00,
2013-09-02 17:03:00,76.0,39.0,-100.00,SE,127,8.0,14.0,26,0.00,,,0.18,402.000000,,2013-09-02 23:03:00,
2013-09-02 17:12:00,76.0,39.0,-100.00,SE,127,8.0,14.0,26,0.00,,,0.18,402.000000,,2013-09-02 23:12:00,
2013-09-02 17:22:00,76.0,39.0,-100.00,SE,127,8.0,14.0,26,0.00,,,0.18,402.000000,,2013-09-02 23:22:00,
2013-09-02 17:53:00,73.0,42.0,-100.00,SSE,165,3.0,14.0,33,0.00,,,0.18,346.000000,,2013-09-02 23:53:00,
2013-09-02 18:01:00,73.0,42.0,-100.00,SSE,165,3.0,14.0,33,0.00,,,0.18,346.000000,,2013-09-03 00:01:00,
2013-09-02 18:12:00,73.0,42.0,-100.00,SSE,165,3.0,14.0,33,0.00,,,0.18,346.000000,,2013-09-03 00:12:00,
2013-09-02 18:21:00,73.0,42.0,-100.00,SSE,165,3.0,14.0,33,0.00,,,0.18,346.000000,,2013-09-03 00:21:00,
2013-09-02 18:52:00,71.0,45.0,-100.00,ESE,103,7.0,12.0,39,0.00,,,0.18,79.000000,,2013-09-03 00:52:00,
2013-09-02 19:02:00,71.0,45.0,-100.00,ESE,103,7.0,12.0,39,0.00,,,0.18,79.000000,,2013-09-03 01:02:00,
2013-09-02 19:11:00,71.0,45.0,-100.00,ESE,103,7.0,12.0,39,0.00,,,0.18,79.000000,,2013-09-03 01:11:00,
2013-09-02 19:21:00,71.0,45.0,-100.00,ESE,103,7.0,12.0,39,0.00,,,0.18,79.000000,,2013-09-03 01:21:00,
2013-09-02 19:52:00,66.0,45.0,-100.00,North,358,4.0,18.0,46,0.00,,,0.01,23.000000,,2013-09-03 01:52:00,
2013-09-02 20:02:00,66.0,45.0,-100.00,North,358,4.0,18.0,46,0.00,,,0.01,23.000000,,2013-09-03 02:02:00,
2013-09-02 20:12:00,66.0,45.0,-100.00,North,358,4.0,18.0,46,0.00,,,0.01,23.000000,,2013-09-03 02:12:00,
2013-09-02 20:21:00,66.0,45.0,-100.00,North,358,4.0,18.0,46,0.00,,,0.01,23.000000,,2013-09-03 02:21:00,
2013-09-02 20:23:00,63.0,46.0,-100.00,NNW,330,2.0,8.0,53,0.00,,,0.01,3.000000,,2013-09-03 02:23:00,
2013-09-02 20:52:00,63.0,46.0,-100.00,NNW,330,2.0,8.0,53,0.00,,,0.01,3.000000,,2013-09-03 02:52:00,
2013-09-02 21:02:00,63.0,46.0,-100.00,NNW,330,2.0,8.0,53,0.00,,,0.01,3.000000,,2013-09-03 03:02:00,
2013-09-02 21:11:00,63.0,46.0,-100.00,NNW,330,2.0,8.0,53,0.00,,,0.01,3.000000,,2013-09-03 03:11:00,
2013-09-02 21:23:00,61.0,46.0,-100.00,NW,316,5.0,8.0,58,0.00,,,0.01,0.000000,,2013-09-03 03:23:00,
2013-09-02 21:55:00,61.0,46.0,-100.00,NW,316,5.0,8.0,58,0.00,,,0.01,0.000000,,2013-09-03 03:55:00,
2013-09-02 22:04:00,61.0,46.0,-100.00,NW,316,5.0,8.0,58,0.00,,,0.01,0.000000,,2013-09-03 04:04:00,
2013-09-02 22:14:00,61.0,46.0,-100.00,NW,316,5.0,8.0,58,0.00,,,0.01,0.000000,,2013-09-03 04:14:00,
2013-09-02 22:23:00,58.0,46.0,-100.00,North,357,3.0,7.0,65,0.00,,,0.01,0.000000,,2013-09-03 04:23:00,
2013-09-02 22:53:00,58.0,46.0,-100.00,North,357,3.0,7.0,65,0.00,,,0.01,0.000000,,2013-09-03 04:53:00,
2013-09-02 23:03:00,58.0,46.0,-100.00,North,357,3.0,7.0,65,0.00,,,0.01,0.000000,,2013-09-03 05:03:00,
2013-09-02 23:12:00,58.0,46.0,-100.00,North,357,3.0,7.0,65,0.00,,,0.01,0.000000,,2013-09-03 05:12:00,
2013-09-02 23:52:00,54.0,46.0,-100.00,WNW,290,4.0,5.0,73,0.00,,,0.00,0.000000,,2013-09-03 05:52:00,